Location: Tamazert
(32.6352°N, 5.2072°W)
Time: 07:07:56
(UTC+00:00)

Tiros 1 despin weight - Pass Details

Date: 11 October 2022
Orbit: 590 x 637 km, 48.2° (Epoch: 28 November)

Event Time Altitude Azimuth Distance (km) Brightness Sun altitude
Rises 20:37:07 0° 294° (WNW) 2,884 ? -35.1°
Reaches altitude 10° 20:39:51 10° 279° (W) 1,985 ? -35.7°
Enters shadow 20:41:22 17° 262° (W) 1,602 ? -36.0°
Maximum altitude 20:43:18 21° 229° (SW) 1,389 - -36.4°
Drops below altitude 10° 20:46:48 10° 180° (S) 1,997 - -37.1°
Sets 20:49:33 0° 164° (SSE) 2,907 - -37.7°
